星链-31855 (STARLINK-31855 )

导读

STARLINK-31855是美国太空探索技术公司SpaceX星链星座的卫星,于北京时间2024年5月23日发射入轨,属于星链组网部署的一部分,服务全球卫星互联网覆盖,为偏远地区、航海航空等场景提供低延迟宽带接入服务,助力SpaceX完成近地轨道大规模星座的组网建设目标。

基本信息
目录编号:
59838
目录名称:
STARLINK-31855
国际标识:
2024-097D
轨道中心:
EARTH
卫星名称:
星链-31855
卫星全名:
星链-31855 (STARLINK-31855 )
卫星状态:
在轨 (已飞行756 天)
发射日期:
2024-05-23 UTC
国别 :
美国 (US)
星等 :
--
轨道信息
数据来源 国际轨道数据
星历时间: 2026-06-17T08:51:35+0800
1天前
查看轨道信息
半长轴: 6861.045km
偏心率: 0.000206
轨道倾角: 43.001°
近地点辐角 117.414°
升交点赤经 73.030°
平近点角 242.692°
近地点: 481.494km
远地点: 484.322km
周期: 94.264分钟
每日圈数: 15.276274
详细信息
固有亮度:
5
最大亮度:
1.5
卫星平台:
Starlink v2.0 mini
覆盖范围:
全球
运营商:
太空探索技术公司
运营商所在国:
美国
制造商(研发单位):
太空探索技术公司
制造商所在国:
美国
使用方式:
暂无
卫星简介
星链(Starlink)计划是由太空探索技术公司(SpaceX)提出的一个巨型低轨卫星互联网星座项目,计划在2019年至2024年间在太空搭建由约1.2万颗卫星组成的“星链”网络,其中1584颗将部署在地球上空550千米处的近地轨道,并从2020年开始工作。该卫星仍在工作。
2D轨道图
3D轨道图
轨道高度分析图
轨道倾角分析图
轨道综合分析图
查看轨道综合分析图